Location: Newark
(46.1833°N, 6.1333°E)
Time: 16:39:00
(UTC+00:00)

ISS - Visible Passes

Search period start: 21 November 2019 00:00
Search period end: 01 December 2019 00:00
Orbit: 412 x 421 km, 51.6° (Epoch: 22 November)

Date Brightness Start Highest point End Pass type
(mag) Time Alt. Az. Time Alt. Az. Time Alt. Az.
21 Nov -1.4 18:14:55 10° SSW 18:16:02 18° SSW 18:16:02 18° SSW visible
22 Nov -2.2 17:27:07 10° S 17:29:43 21° SE 17:29:53 21° SE visible
23 Nov -1.5 16:39:50 10° SSE 16:41:31 13° SE 16:43:11 10° ESE visible
23 Nov -2.4 18:14:25 10° WSW 18:16:34 37° SW 18:16:34 37° SW visible
24 Nov -3.4 17:26:08 10° SW 17:29:24 50° SE 17:30:15 38° E visible
24 Nov -0.2 19:02:59 10° W 19:03:09 11° W 19:03:09 11° W visible
25 Nov -2.6 16:38:03 10° SSW 16:41:03 31° SE 16:43:52 11° E visible
25 Nov -2.4 18:14:24 10° W 18:16:46 38° WNW 18:16:46 38° WNW visible
26 Nov -3.7 17:25:51 10° WSW 17:29:12 75° NNW 17:30:19 39° NE visible
27 Nov -3.7 16:37:25 10° SW 16:40:45 74° SSE 16:43:49 12° ENE visible
27 Nov -2.0 18:14:34 10° W 18:16:43 28° NW 18:16:43 28° NW visible
28 Nov -3.0 17:25:54 10° W 17:29:08 42° NNW 17:30:11 32° NNE visible
29 Nov -3.4 16:37:17 10° W 16:40:35 56° NNW 16:43:37 12° ENE visible
29 Nov -1.7 18:14:43 10° WNW 18:16:30 23° NW 18:16:30 23° NW visible
30 Nov -2.6 17:26:03 10° WNW 17:29:07 32° N 17:29:56 28° NNE visible
